Погода в Нижней Полтавке

Россия / Амурская область     49°42′47″N   128°14′13″E
темп.,
°C
ветер,
м/с
пор.,
м/с
влажн.,
%
обл.,
%
осадки,
мм/ч
давл.,
гПа
погр.,
м
19 сентября, вс
вс1900:00+8сз2259100 0.0 101919
03:00+9зюз2257100 0.0 101916
06:00+7з367098 0.0 1019113
09:00+11зюз34630 0.0 1020465
12:00+15з34480 0.0 10191280
15:00+17з35415 0.0 10172195
18:00+13с12575 0.0 101810
21:00+9зюз11620 0.0 102010
20 сентября, пн
пн2000:00+7з22800 0.0 102025
03:00+6юз33880 0.0 102030
06:00+5юз22900 0.0 102023
09:00+11ююз456895 0.0 1019321
12:00+16ююз4550100 0.0 1017864
15:00+17ююз4545100 0.0 10151072
18:00+13ююз1262100 0.0 101511
21:00+11юв1165100 0.0 101410
21 сентября, вт
вт2100:00+9в2271100 0.0 101317
03:00+9в3373100 0.0 101241
06:00+8в3573100 0.0 101284
09:00+11в4865100 0.0 1011292
12:00+15в5757100 0.0 1010617
15:00+16в5763100 0.0 1009890
18:00+14всв4874100 0.0 1009352
21:00+12в41094100 0.6 1009474
22 сентября, ср
ср2200:00+11всв51196100 5.3 1009456
03:00+11всв61195100 7.2 1008530
06:00+11всв61195100 3.1 1009592
09:00+10всв61195100 5.8 1011609
12:00+10всв51294100 1.4 1012599
15:00+10всв4991100 1.8 1013392
18:00+11всв3990100 0.1 1014362
21:00+10всв3688100 0.1 1016163
23 сентября, чт
чт2300:00+10всв238899 0.0 101769
03:00+10всв2289100 0.0 101841
06:00+9всв338987 0.0 101949
09:00+11в357261 0.0 1020303
12:00+15в465122 0.0 1020911
15:00+17в4546100 0.0 10201220
18:00+13св346634 0.0 102146
21:00+10в22640 0.0 102210